Home   Weather   37°40'S, 144°56'E   Past weeks
Flag for Australia

Past Weather in 37°40'S, 144°56'E, Australia — Yesterday and Last 2 Weeks

Now
63 °F

Passing clouds.


Feels Like: 63 °F
Forecast: 53 / 47 °F
Wind: 13 mph from Northwest

Location: Melbourne Airport

Current Time: Jun 17, 2019 at 2:53:24 pm

Latest Report: Jun 17, 2019 at 2:00 pm


Visibility: N/A

Pressure: 30.12 "Hg

Humidity: 45%

Dew Point: 41 °F

Location of 37°40'S, 144°56'ELocation

Past Weather in 37°40'S, 144°56'E — Graph

°F

37°40'S, 144°56'E Temperature Yesterday

Maximum temperature yesterday: 59 °F (at 12:30 pm)
Minimum temperature yesterday: 46 °F (at 12:30 am)
Average temperature yesterday: 52 °F

High & Low Weather Summary for the Past Weeks

 TemperatureHumidityPressure
High64 °F (Jun 8, 2:00 pm)100% (Jun 3, 1:36 am)30.63 "Hg (Jun 3, 1:36 am)
Low41 °F (Jun 7, 11:00 pm)42% (Jun 10, 2:00 pm)29.80 "Hg (Jun 12, 1:00 pm)
Average52 °F78%30.19 "Hg
* Reported Jun 2 1:00 pm — Jun 17 1:30 pm, 37°40'S, 144°56'E. Weather by CustomWeather, © 2019

Note: Actual official high and low records may vary slightly from our data, if they occured in-between our weather recording intervals... More about our weather records

Advertising

37°40'S, 144°56'E Weather History for the Previous 24 Hours

Scroll right to see more
 ConditionsComfort  
Time TempWeatherWind HumidityBarometerVisibility
1:30 pm
Mon, Jun 17
61 °FPassing clouds.10 mph59%30.15 "HgN/A
1:00 pm61 °FPassing clouds.13 mph59%30.15 "HgN/A
12:30 pm61 °FPassing clouds.13 mph59%30.15 "HgN/A
12:00 pm59 °FPassing clouds.14 mph63%30.18 "HgN/A
11:30 am59 °FPassing clouds.13 mph55%30.18 "HgN/A
11:00 am57 °FPassing clouds.13 mph63%30.18 "HgN/A
10:00 am54 °FSunny.12 mph72%30.21 "Hg10 mi
9:30 am50 °FSunny.13 mph76%30.21 "Hg10 mi
9:00 am48 °FSunny.14 mph76%30.21 "Hg10 mi
8:30 am46 °FSunny.15 mph82%30.21 "Hg10 mi
8:00 am46 °FScattered clouds.13 mph82%30.21 "HgN/A
7:30 am45 °FPassing clouds.14 mph87%30.18 "HgN/A
7:00 am46 °FPassing clouds.13 mph82%30.21 "HgN/A
6:30 am45 °FPassing clouds.13 mph87%30.21 "HgN/A
6:00 am46 °FPassing clouds.12 mph82%30.18 "HgN/A
5:30 am45 °FPassing clouds.8 mph87%30.18 "HgN/A
5:00 am45 °FPassing clouds.10 mph87%30.18 "HgN/A
4:30 am45 °FPassing clouds.10 mph87%30.18 "HgN/A
4:00 am46 °FPassing clouds.10 mph82%30.18 "HgN/A
3:30 am45 °FPassing clouds.10 mph87%30.18 "HgN/A
3:00 am46 °FPassing clouds.10 mph87%30.21 "HgN/A
2:30 am46 °FPassing clouds.10 mph87%30.21 "HgN/A
2:00 am48 °FPassing clouds.10 mph82%30.18 "HgN/A
1:30 am48 °FPassing clouds.10 mph82%30.21 "HgN/A
1:00 am48 °FPassing clouds.10 mph82%30.21 "HgN/A
12:30 am48 °FPassing clouds.10 mph82%30.21 "HgN/A
12:00 am48 °FPassing clouds.10 mph82%30.21 "HgN/A
11:30 pm
Sun, Jun 16
48 °FPassing clouds.12 mph82%30.21 "HgN/A
11:00 pm46 °FPassing clouds.12 mph87%30.21 "HgN/A
10:30 pm48 °FPassing clouds.12 mph82%30.21 "HgN/A
10:00 pm48 °FPassing clouds.13 mph87%30.21 "HgN/A
9:30 pm50 °FPassing clouds.13 mph82%30.21 "HgN/A
9:00 pm50 °FPassing clouds.10 mph88%30.21 "HgN/A
8:30 pm50 °FClear.12 mph88%30.21 "Hg10 mi
8:00 pm52 °FClear.12 mph82%30.21 "Hg10 mi
7:30 pm52 °FClear.10 mph82%30.18 "Hg10 mi
7:00 pm52 °FPassing clouds.10 mph82%30.18 "HgN/A
6:30 pm50 °FPassing clouds.8 mph88%30.18 "HgN/A
6:00 pm52 °FScattered showers. Passing clouds.1 mph82%30.18 "HgN/A
5:30 pm54 °FSprinkles. Passing clouds.5 mph77%30.18 "HgN/A
5:00 pm54 °FScattered showers. Scattered clouds.7 mph77%30.15 "HgN/A
4:30 pm55 °FScattered showers. Passing clouds.8 mph72%30.15 "HgN/A
4:00 pm57 °FScattered showers. Scattered clouds.7 mph72%30.15 "HgN/A
3:30 pm57 °FScattered showers. Scattered clouds.9 mph67%30.15 "HgN/A
3:00 pm59 °FScattered showers. Broken clouds.10 mph68%30.15 "HgN/A
2:30 pm59 °FScattered showers. Broken clouds.10 mph59%30.15 "HgN/A
2:00 pm57 °FSprinkles. Broken clouds.10 mph67%30.15 "HgN/A
Weather by CustomWeather, © 2019

See weather overview